Regional Weather Roundup
Issued by NWS

Home | Current Version | Previous Version | Text Only | Print | Product List | Glossary Off
Versions: 1 2 3 4 5 6 7 8 9 10 11 12 13 14 15 16 17 18 19 20 21 22 23 24 25 26 27 28 29 30 31 32 33 34 35 36 37 38 39 40 41 42 43 44 45 46 47 48 49 50

000
ASUS43 KLOT 231810
RWRIL

ILLINOIS REGIONAL WEATHER ROUNDUP
NATIONAL WEATHER SERVICE CHICAGO/ROMEOVILLE IL
100 PM CDT SAT AUG 23 2014

NOTE: "FAIR" INDICATES FEW OR NO CLOUDS BELOW 12,000 FEET WITH NO
SIGNIFICANT WEATHER AND/OR OBSTRUCTIONS TO VISIBILITY.

* THESE STATIONS ARE NOT UNDER NWS QUALITY CONTROL. THEY ALSO MAY NOT
  REPORT WEATHER SUCH AS PRECIPITATION OR FOG.

ILZ001-002-007-009-015-016-024-231900-
NORTHWEST ILLINOIS

CITY           SKY/WX    TMP DP  RH WIND       PRES   REMARKS
MOLINE         CLOUDY    72  69  90 E10       29.96F
6HR MIN TEMP:  71; 6HR MAX TEMP:  77; 6HR PCP:  0.45;

STERLING*      CLOUDY    72  68  88 E9        29.99F
SAVANNA*       CLOUDY    72  69  91 CALM      29.95F
$$

ILZ003-004-008-010-011-017-018-231900-
NORTH CENTRAL ILLINOIS

CITY           SKY/WX    TMP DP  RH WIND       PRES   REMARKS
ROCKFORD       TSTM      72  69  90 NE6       30.04R
6HR MIN TEMP:  72; 6HR MAX TEMP:  79; 6HR PCP:  0.10;

FREEPORT*      TSTM      71  69  96 CALM      30.00F
ROCHELLE*      RAIN      70  68  92 CALM      30.02F
DE KALB*       RAIN      75  74  94 S5        30.03S
PERU*          RAIN      70  68  95 NE7       30.02S
$$

ILZ005-006-012>014-019>023-231900-
NORTHEAST ILLINOIS

CITY           SKY/WX    TMP DP  RH WIND       PRES   REMARKS
CHICAGO-OHARE  CLOUDY    83  73  72 NE9       30.00S HX  89
6HR MIN TEMP:  73; 6HR MAX TEMP:  86;

CHICAGO-MIDWAY CLOUDY    85  75  72 E9        29.99S HX  93
6HR MIN TEMP:  78; 6HR MAX TEMP:  87;

AURORA         TSTM      80  74  81 W9        30.03R HX  85
6HR MIN TEMP:  74; 6HR MAX TEMP:  84;

LANSING*       CLOUDY    84  72  66 S3        30.00S HX  90
JOLIET*        CLOUDY    82  72  71 CALM      30.01S HX  87
WAUKEGAN       CLOUDY    77  72  84 NE6       30.01S
6HR MIN TEMP:  71; 6HR MAX TEMP:  80;

DUPAGE AIRPORT CLOUDY    83  74  74 S5        30.01S HX  89
6HR MIN TEMP:  73; 6HR MAX TEMP:  86;

KANKAKEE*      CLOUDY    84  75  76 CALM      30.00S HX  92
WHEELING       CLOUDY    82  73  74 NE8       30.02S HX  87
6HR MIN TEMP:  73; 6HR MAX TEMP:  85;

MORRIS*        CLOUDY    74  70  87 W20G35    30.03R
ROMEOVILLE*    CLOUDY    82  74  79 SW5       30.01S HX  87
NORTHERLY ISL    N/A     74  72  93 N7          N/A
$$

LMZ740>746-231900-
SOUTHERN LAKE MICHIGAN

STATION/POSITION SKY/WX   TEMP    WIND        PRES    VSBY  WAVE
                          AIR SEA DIR/SP/G                  HT/PER
                          (F)     (DEG/KT/KT) (MB)    (MI)  (FT/S)
SOUTHERN BUOY              70 69  140/  6/  8 1016.7F         1
WAUKEGAN HARBOR            71      50/  7/  8   N/A
HARRISON CRIB              72      40/  9/ 11   N/A
BURNHAM HARBOR             74      30/  5/  9   N/A
CALUMET HARBOR             75      10/  7/  9 1014.9F
MICHIGAN CITY              76      10/ 12/ 13   N/A
MICHIGAN CITY 6N           75 73   50/ 10/ 12   N/A           1/ 2
ST. JOSEPH                 77 73  100/  6/  8   N/A           0
$$

ILZ025>027-034>036-040-047-049-050-058-095>099-231900-
WEST-CENTRAL ILLINOIS

CITY           SKY/WX    TMP DP  RH WIND       PRES   REMARKS
QUINCY         PTSUNNY   87  72  60 SE8       29.94F HX  93
GALESBURG*     CLOUDY    71  70  95 E6        29.97F
MACOMB*        CLOUDY    79  73  80 E8        29.98F HX  83
JACKSONVILLE*  PTSUNNY   90  77  66 NE7       29.97F HX 103
PITTSFIELD*    MOSUNNY   90  74  59 NE8       29.96F HX  98
$$

ILZ028>032-037-038-041>044-048-051>054-059>061-231900-
CENTRAL ILLINOIS

CITY           SKY/WX    TMP DP  RH WIND       PRES   REMARKS
PONTIAC        TSTM      72  72 100 NE9       30.04S
DECATUR        PTSUNNY   87  79  76 E5        29.97F HX 101
PEORIA         CLOUDY    75  69  81 N3        29.97F
6HR MIN TEMP:  72; 6HR MAX TEMP:  84; 6HR PCP:  0.78;

LACON*         CLOUDY    70  68  94 NE8       30.00R
LINCOLN*       PTSUNNY   83  74  73 N8        29.93F HX  90
SPRINGFIELD    PTSUNNY   91  79  67 N8        29.96F HX 107
6HR MIN TEMP:  77; 6HR MAX TEMP:  91; 6HR PCP:  0.02;

TAYLORVILLE    PTSUNNY   88  79  74 CALM      29.96F HX 102
$$

ILZ033-039-045-046-055>057-062-063-231900-
EAST-CENTRAL ILLINOIS

CITY           SKY/WX    TMP DP  RH WIND       PRES   REMARKS
CHAMPAIGN      PTSUNNY   86  78  77 SE7       29.98F HX  98
DANVILLE*      RAIN      83  77  80 CALM      29.96F HX  93
RANTOUL*       PTSUNNY   87  75  68 SE6       29.99F HX  96
MATTOON        CLOUDY    86  79  79 E3        29.97S HX  99
PARIS*         PTSUNNY   86  80  81 CALM      29.99S HX 100
$$

ILZ079-100>102-231900-
SOUTHWEST ILLINOIS

CITY           SKY/WX    TMP DP  RH WIND       PRES   REMARKS
ALTON          MOSUNNY   91  77  62 N10       29.96S HX 105
BELLEVILLE     SUNNY     94  73  50 VRB2      29.94F HX 104
CAHOKIA*       SUNNY     97  70  41 VRB3      29.94F HX 103
SPARTA*        SUNNY     91  76  60 NW3       29.96F HX 103
$$

ILZ064>066-069>071-074>076-080>082-084>086-088>090-092>094-231900-
SOUTH-CENTRAL ILLINOIS

CITY           SKY/WX    TMP DP  RH WIND       PRES   REMARKS
CARBONDALE     SUNNY     92  76  59 CALM      29.96F HX 104
6HR MIN TEMP:  76; 6HR MAX TEMP:  93;

CAIRO*         MOSUNNY   94  79  62 CALM      29.96F HX 110
MARION         SUNNY     93  77  59 NW12      29.98F HX 107
MT. VERNON     MOSUNNY   91  77  62 W3        29.96F HX 105
CENTRALIA*     SUNNY     98  77  51 N7        29.96F HX 114
SALEM*         SUNNY     92  80  67 N6        29.96F HX 110
METROPOLIS*    PTSUNNY   86  75  68 CALM      29.97F HX  95
$$

ILZ067-068-072-073-078-083-087-091-231900-
SOUTHEAST ILLINOIS

CITY           SKY/WX    TMP DP  RH WIND       PRES   REMARKS
LAWRENCEVILLE  CLOUDY    88  78  72 VRB6      29.97F HX 101
FLORA*         MOSUNNY   90  77  66 CALM      29.95F HX 103
FAIRFIELD*     MOSUNNY   91  82  75 CALM      29.95F HX 114
HARRISBURG*    MOSUNNY   89  79  73 SW5       29.98S HX 104
ROBINSON*      PTSUNNY   88  80  76 S3        29.98F HX 104
CARMI*         SUNNY     91  81  70 CALM      29.95F HX 110
$$

ABBREVIATIONS USED IN REMARKS
   TC - TEMPERATURE IN CELSIUS
  WCI - WIND CHILL INDEX
   HX - HEAT INDEX
  VSB - VISIBILITY
$$



USA.gov is the U.S. government's official web portal to all federal, state and local government web resources and services.